• MPC Preparation (Info)

  • MPEC 2019-V09 : 2019 UN13

    The following Minor Planet Electronic Circular may be linked-to from your own Web pages, but must not otherwise be redistributed electronically.

    A form allowing access to any MPEC is at the bottom of this page.


    Read MPEC 2019-V08 Read MPEC 2019-V10


    M.P.E.C. 2019-V09                              Issued 2019 November 1, 17:03 UT
    
         The Minor Planet Electronic Circulars contain information on unusual
             minor planets and routine data on comets.  They are published
        on behalf of Division F of the International Astronomical Union by the
              Minor Planet Center, Smithsonian Astrophysical Observatory,
                              Cambridge, MA 02138, U.S.A.
    
                 Prepared using the Tamkin Foundation Computer Network
    
                                  MPC@CFA.HARVARD.EDU
                URL https://www.minorplanetcenter.net/    ISSN 1523-6714
    
                                    2019 UN13                                
    
    
    Observations:
         K19U13N* C2019 10 31.28274 02 50 51.01 +20 32 02.2          19.9 GVEV009703
         K19U13N  C2019 10 31.28797 02 50 31.07 +20 31 14.3          19.1 GVEV009703
         K19U13N  C2019 10 31.29321 02 50 10.01 +20 30 20.4          19.4 GVEV009703
         K19U13N  C2019 10 31.29845 02 49 48.77 +20 29 24.4          18.5 GVEV009703
         K19U13N  C2019 10 31.32873 02 47 29.45 +20 22 37.2          18.5 GVEV009I52
         K19U13N  C2019 10 31.32920 02 47 27.07 +20 22 29.2          18.4 GVEV009I52
         K19U13N  C2019 10 31.32969 02 47 24.58 +20 22 21.9          18.7 GVEV009I52
         K19U13N  C2019 10 31.33017 02 47 22.11 +20 22 14.1          18.2 GVEV009I52
         K19U13N  C2019 10 31.34216302 45 59.09 +20 16 03.8          18.4 GVEV009H01
         K19U13N  C2019 10 31.34542902 45 40.69 +20 14 58.5          18.5 GVEV009H01
         K19U13N  C2019 10 31.35704902 44 31.87 +20 10 46.3          18.2 GVEV009H01
         K19U13N  C2019 10 31.36279602 43 55.74 +20 08 29.1          18.7 GVEV009H01
         K19U13N |C2019 10 31.39939 02 39 14.98 +19 51 24.4                VEV009H06
         K19U13N |C2019 10 31.40434 02 38 32.45 +19 48 16.2          17.2 GVEV009H06
         K19U13N  C2019 10 31.41192602 37 36.78 +19 41 38.3          18.2 GVEV009H01
         K19U13N  C2019 10 31.41974702 36 21.81 +19 35 47.3          17.5 GVEV009H01
         K19U13N  C2019 10 31.43157802 34 18.31 +19 25 49.3          17.5 GVEV009H01
         K19U13N  C2019 10 31.43558102 33 33.46 +19 22 06.3          17.3 GVEV009H01
    
    Observer details:
    703 Catalina Sky Survey.  Observer T. A. Pruyne.  Measurers E. J. Christensen, 
       G. A. Farneth, D. C. Fuls, A. R. Gibbs, A. D. Grauer, H. Groeller, R. A. 
       Kowalski, S. M. Larson, G. J. Leonard, T. A. Pruyne, D. Rankin, R. L. Seaman,
        F. C. Shelly, K. W. Wierzchos.  0.68-m Schmidt + 10K CCD.
    H01 Magdalena Ridge Observatory, Socorro.  Observers W. H. Ryan, E. V. Ryan.  
        Measurer W. H. Ryan.  2.4-m f/8.9 Ritchey-Chretien + CCD.
    H06 iTelescope Observatory, Mayhill.  Observer H. Sato.  0.25-m f/3.4 
       astrograph + CCD.
    I52 Steward Observatory, Mt. Lemmon Station.  Observer D. Rankin.  Measurers E. 
       J. Christensen, G. A. Farneth, D. C. Fuls, A. R. Gibbs, A. D. Grauer, H. 
       Groeller, R. A. Kowalski, S. M. Larson, G. J. Leonard, T. A. Pruyne, D. 
       Rankin, R. L. Seaman, F. C. Shelly, K. W. Wierzchos.  1.0-m reflector + CCD.
    
    Orbital elements:
    2019 UN13                                                Earth MOID = 0.0000 AU
    Epoch 2019 Apr. 27.0 TT = JDT 2458600.5                 Williams
    M 100.74020              (2000.0)            P               Q
    n   1.00340233     Peri.  291.06209     -0.85372751     -0.52047745
    a   0.9881419      Node   217.57862     +0.48690332     -0.78709353
    e   0.3461765      Incl.    1.49327     +0.18459278     -0.33103927
    P   0.98           H   32.0           G   0.15
    Residuals in seconds of arc
    191031 703  2.2+  1.9-    191031 I52  0.2+  0.6+    191031 H06  2.8+  0.1+
    191031 703  2.6+  0.1+    191031 I52  0.1+  0.5+    191031 H06  2.4+  0.5+
    191031 703  2.3-  0.5-    191031 H01  0.4-  0.0     191031 H01  1.8+  0.6+
    191031 703  0.5+  0.2+    191031 H01  0.3-  0.1+    191031 H01  1.7+  0.4+
    191031 I52  0.3-  0.6+    191031 H01  0.3+  0.4+    191031 H01  1.2+  0.0
    191031 I52  0.0   0.0     191031 H01  0.3+  0.4+    191031 H01  0.9+  0.3-
    
    Ephemeris:
    2019 UN13                a,e,i = 0.99, 0.35, 1                   q = 0.6461
    Date    TT    R. A. (2000) Decl.     Delta      r    Elong.  Phase     V
    2019 10 02    02 52 45.0 +20 27 53   0.1831  1.1497   141.3    33.0    30.0
    ...
    2019 10 17    03 00 09.5 +21 14 46   0.08694 1.0757   154.1    23.9    28.0
    ...
    2019 10 25    03 01 37.0 +21 26 34   0.03889 1.0316   161.5    17.8    25.9
    ...
    2019 10 31    02 55 37.8 +21 08 02   0.0036720.9966   168.6    11.4    20.5
    2019 11 01    13 23 50.5 -14 03 14   0.0023180.9905    14.2   165.7    32.4
    2019 11 02    13 16 35.2 -13 21 39   0.0081790.9846    17.0   162.9    33.6
    ...
    2019 11 08    13 14 43.3 -13 08 26   0.04340 0.9512    23.3   155.7    34.8
    ...
    2019 11 16    13 17 00.7 -13 13 50   0.09164 0.9114    30.6   146.4    34.4
    ...
    2019 12 01    13 29 20.9 -14 00 16   0.1885  0.8569    42.5   128.9    33.6
    
    A. U. Tomatic                (C) Copyright 2019 MPC           M.P.E.C. 2019-V09
    


    Read MPEC 2019-V08 Read MPEC 2019-V10


    MPEC number:

    Enter an MPEC number in one of the following forms:

    • 1997-B01 (the full form)
    • J97B01 (the packed version of the full form)
    • B01 (the abbreviated form)